Flag for India Weather past 2 weeks in Giridih, Jharkhand, India

Now
82 °F

Haze.


Feels Like: 89 °F
Forecast: 78 / 87 °F
Wind: 5 mph from West

Location: Varanasi / Babatpur

Current Time: Jul 28, 2015 at 7:44:23 AM

Latest Report: Jul 28, 2015 at 5:00 AM


Visibility: 2 mi

Pressure: 29.59 "Hg

Humidity: 79%

Dew point: 75 °F

Location of GiridihLocation

Historic Weather in Giridih — Graph

°F

Giridih temperature yesterday

Maximum temperature yesterday: 99 °F (at 4:00 PM)
Minimum temperature yesterday: 82 °F (at 4:00 AM)
Average temperature yesterday: 89 °F

Past Weeks' High & Low Weather Summary

 TemperatureHumidityPressure
High99 °F (Jul 27, 4:00 PM)100% (Jul 16, 6:00 AM)29.65 "Hg (Jul 16, 6:00 AM)
Low77 °F (Jul 16, 9:00 AM)45% (Jul 23, 4:00 AM)29.33 "Hg (Jul 15, 6:00 PM)
Average87 °F79%29.52 "Hg
* Reported Jul 13 7:00 AM — Jul 28 5:00 AM, Giridih, Weather by CustomWeather, © 2015

Note: Actual official high and low records may vary slightly from our data, if they occured in-between our weather recording intervals... More about our weather records

Advertising

Giridih weather history for previous 24 hours

 ConditionsComfort  
Time TempWeatherWind HumidityBarometerVisibility
5:00 AM
Tue, Jul 28
82 °FHaze.5 mph79%29.59 "Hg2 mi
4:00 AM84 °FHaze.6 mph74%29.59 "Hg2 mi
12:00 AM86 °FHaze.6 mph70%29.62 "Hg2 mi
11:00 PM
Mon, Jul 27
88 °FPassing clouds.No wind75%29.65 "Hg2 mi
10:00 PM88 °FHaze.No wind70%29.62 "Hg2 mi
9:00 PM88 °FHaze.2 mph70%29.59 "Hg3 mi
8:00 PM90 °FHaze.3 mph67%29.59 "Hg3 mi
6:00 PM91 °FPassing clouds.3 mph67%29.56 "Hg4 mi
5:00 PM95 °FScattered clouds.5 mph56%29.56 "Hg4 mi
4:00 PM99 °FScattered clouds.3 mph50%29.56 "Hg4 mi
3:00 PM97 °FScattered clouds.5 mph53%29.56 "Hg4 mi
2:00 PM93 °FScattered clouds.3 mph59%29.59 "Hg4 mi
12:00 PM91 °FScattered clouds.6 mph63%29.59 "Hg4 mi
11:00 AM91 °FPassing clouds.8 mph56%29.62 "Hg4 mi
9:00 AM84 °FHaze.7 mph79%29.65 "Hg2 mi
8:00 AM84 °FHaze.5 mph79%29.62 "Hg2 mi
7:00 AM82 °FHaze.3 mph84%29.62 "Hg2 mi
Weather by CustomWeather, © 2015

See weather overviewHow to use our weather pages